Heber City, UT

8:02 PM MDT on August 27, 2016 (GMT -0600)
Heber

Weather History for K36U - May, 2013

Change the Weather History Date:

Friday, May 24, 2013

  Actual Average (KPVU) Record (KPVU)
Temperature  
Mean Temperature 52 °F -  
Max Temperature 71 °F 74 °F 91 °F (2003)
Min Temperature 32 °F 46 °F 37 °F (2002)
Degree Days  
Heating Degree Days 14    
Growing Degree Days 2 (Base 50)    
Moisture  
Dew Point 26 °F    
Average Humidity 44    
Maximum Humidity 87    
Minimum Humidity 13    
Precipitation  
Precipitation 0.00 in - - ()
Sea Level Pressure  
Sea Level Pressure 30.04 in    
Wind  
Wind Speed 7 mph (South)    
Max Wind Speed 24 mph    
Max Gust Speed 29 mph    
Visibility 10 miles    
Events      
Averages and records for this station are not official NWS values.
T = Trace of Precipitation, MM = Missing Value Source: NWS Daily Summary

Daily Weather History Graph

Daily Weather History Graph

Search for Another Location

Airport or City:

Trip Planner

Search our weather history database for the weather conditions in past years. The results will help you decide how hot, cold, wet, or windy it might be!

Date:

Astronomy

May. 24, 2013 Rise Set
Actual Time 6:01 AM MDT 8:43 PM MDT
Civil Twilight 5:29 AM MDT 9:15 PM MDT
Nautical Twilight 4:50 AM MDT 9:55 PM MDT
Astronomical Twilight 4:04 AM MDT 10:41 PM MDT
Moon 8:30 PM MDT (5/24) 5:37 AM MDT (5/24)
Length of Visible Light 15h 45m
Length of Day
14h 42m
Full, 100% of the Moon is Illuminated
May 24
Full
May 24
Full
May 31
Last Quarter
Jun 8
New
Jun 16
First Quarter

Hourly Weather History & Observations

Time (MDT) Temp. Windchill Dew Point Humidity Pressure Visibility Wind Dir Wind Speed Gust Speed Precip Events Conditions
12:15 AM 44.6 °F 38.8 °F 32.0 °F 61% 29.99 in 10.0 mi ESE 11.5 mph - N/A   Clear
12:35 AM 44.6 °F 39.2 °F 32.0 °F 61% 30.00 in 10.0 mi ESE 10.4 mph - N/A   Clear
12:55 AM 44.6 °F 38.8 °F 32.0 °F 61% 30.01 in 10.0 mi ESE 11.5 mph - N/A   Clear
1:15 AM 44.6 °F 39.2 °F 32.0 °F 61% 30.02 in 10.0 mi ESE 10.4 mph - N/A   Clear
1:35 AM 42.8 °F 37.5 °F 32.0 °F 66% 30.03 in 10.0 mi ESE 9.2 mph - N/A   Clear
1:55 AM 42.8 °F 38.6 °F 30.2 °F 61% 30.03 in 10.0 mi East 6.9 mph - N/A   Clear
2:15 AM 41.0 °F 36.4 °F 30.2 °F 65% 30.03 in 10.0 mi ESE 6.9 mph - N/A   Clear
2:35 AM 41.0 °F 37.1 °F 28.4 °F 61% 30.03 in 10.0 mi ENE 5.8 mph - N/A   Clear
2:55 AM 42.8 °F 40.1 °F 28.4 °F 57% 30.03 in 10.0 mi ENE 4.6 mph - N/A   Clear
3:15 AM 42.8 °F 41.1 °F 28.4 °F 57% 30.04 in 10.0 mi East 3.5 mph - N/A   Clear
3:35 AM 35.6 °F - 30.2 °F 81% 30.05 in 10.0 mi Calm Calm - N/A   Clear
3:55 AM 35.6 °F 32.8 °F 28.4 °F 75% 30.05 in 10.0 mi East 3.5 mph - N/A   Clear
4:15 AM 33.8 °F - 30.2 °F 87% 30.06 in 10.0 mi Calm Calm - N/A   Clear
4:35 AM 33.8 °F 29.6 °F 30.2 °F 87% 30.06 in 10.0 mi East 4.6 mph - N/A   Clear
4:55 AM 32.0 °F 27.5 °F 28.4 °F 87% 30.07 in 10.0 mi ESE 4.6 mph - N/A   Clear
5:15 AM 32.0 °F 28.7 °F 28.4 °F 87% 30.07 in 10.0 mi SE 3.5 mph - N/A   Clear
5:35 AM 32.0 °F - 28.4 °F 87% 30.08 in 10.0 mi Calm Calm - N/A   Clear
5:55 AM 32.0 °F 28.7 °F 28.4 °F 87% 30.09 in 10.0 mi SE 3.5 mph - N/A   Clear
6:15 AM 32.0 °F 27.5 °F 28.4 °F 87% 30.09 in 10.0 mi ESE 4.6 mph - N/A   Clear
6:35 AM 32.0 °F 27.5 °F 28.4 °F 87% 30.10 in 10.0 mi ESE 4.6 mph - N/A   Clear
6:55 AM 33.8 °F - 30.2 °F 87% 30.11 in 10.0 mi Calm Calm - N/A   Clear
7:15 AM 37.4 °F - 30.2 °F 75% 30.12 in 10.0 mi Calm Calm - N/A   Clear
7:35 AM 41.0 °F - 30.2 °F 65% 30.12 in 10.0 mi Calm Calm - N/A   Clear
7:55 AM 41.0 °F - 30.2 °F 65% 30.12 in 10.0 mi Calm Calm - N/A   Clear
8:15 AM 44.6 °F - 30.2 °F 57% 30.11 in 10.0 mi Calm Calm - N/A   Clear
8:35 AM 44.6 °F 43.1 °F 30.2 °F 57% 30.11 in 10.0 mi North 3.5 mph - N/A   Clear
8:55 AM 46.4 °F - 30.2 °F 53% 30.11 in 10.0 mi Calm Calm - N/A   Clear
9:15 AM 46.4 °F - 30.2 °F 53% 30.11 in 10.0 mi Calm Calm - N/A   Clear
9:35 AM 50.0 °F - 30.2 °F 47% 30.11 in 10.0 mi Calm Calm - N/A   Clear
9:55 AM 51.8 °F - 30.2 °F 44% 30.11 in 10.0 mi Calm Calm - N/A   Clear
10:15 AM 53.6 °F - 30.2 °F 41% 30.10 in 10.0 mi Calm Calm - N/A   Clear
10:35 AM 55.4 °F - 28.4 °F 36% 30.09 in 10.0 mi Calm Calm - N/A   Clear
10:55 AM 55.4 °F - 28.4 °F 36% 30.09 in 10.0 mi Calm Calm - N/A   Clear
11:15 AM 59.0 °F - 28.4 °F 31% 30.08 in 10.0 mi West 3.5 mph - N/A   Clear
11:35 AM 60.8 °F - 28.4 °F 29% 30.07 in 10.0 mi Calm Calm - N/A   Clear
11:55 AM 62.6 °F - 26.6 °F 26% 30.07 in 10.0 mi Calm Calm - N/A   Clear
12:15 PM 64.4 °F - 23.0 °F 21% 30.07 in 10.0 mi WNW 3.5 mph - N/A   Clear
12:35 PM 68.0 °F - 19.4 °F 16% 30.06 in 10.0 mi WSW 12.7 mph 16.1 mph N/A   Clear
12:55 PM 68.0 °F - 21.2 °F 17% 30.05 in 10.0 mi SW 15.0 mph 23.0 mph N/A   Clear
1:15 PM 68.0 °F - 19.4 °F 16% 30.05 in 10.0 mi SW 17.3 mph 21.9 mph N/A   Clear
1:35 PM 69.8 °F - 17.6 °F 14% 30.05 in 10.0 mi SW 19.6 mph 23.0 mph N/A   Clear
1:55 PM 69.8 °F - 21.2 °F 16% 30.05 in 10.0 mi WSW 13.8 mph 21.9 mph N/A   Clear
2:15 PM 69.8 °F - 23.0 °F 17% 30.05 in 10.0 mi SW 13.8 mph 20.7 mph N/A   Clear
2:35 PM 71.6 °F - 21.2 °F 15% 30.04 in 10.0 mi WSW 15.0 mph 20.7 mph N/A   Clear
2:55 PM 71.6 °F - 19.4 °F 14% 30.03 in 10.0 mi WSW 18.4 mph 24.2 mph N/A   Clear
3:15 PM 69.8 °F - 15.8 °F 13% 30.03 in 10.0 mi SW 24.2 mph 28.8 mph N/A   Clear
3:35 PM 69.8 °F - 15.8 °F 13% 30.02 in 10.0 mi SW 20.7 mph - N/A   Clear
3:55 PM 71.6 °F - 19.4 °F 14% 30.01 in 10.0 mi SW 18.4 mph - N/A   Clear
4:15 PM 71.6 °F - 19.4 °F 14% 30.01 in 10.0 mi SW 17.3 mph 26.5 mph N/A   Clear
4:35 PM 71.6 °F - 21.2 °F 15% 30.01 in 10.0 mi WSW 13.8 mph 19.6 mph N/A   Clear
4:55 PM 71.6 °F - 19.4 °F 14% 30.00 in 10.0 mi SW 13.8 mph 21.9 mph N/A   Clear
5:15 PM 69.8 °F - 21.2 °F 16% 30.00 in 10.0 mi SW 13.8 mph 20.7 mph N/A   Clear
5:35 PM 69.8 °F - 23.0 °F 17% 30.00 in 10.0 mi SW 10.4 mph 19.6 mph N/A   Clear
5:55 PM 69.8 °F - 19.4 °F 15% 29.99 in 10.0 mi WSW 9.2 mph - N/A   Clear
6:15 PM 69.8 °F - 19.4 °F 15% 29.98 in 10.0 mi WSW 9.2 mph - N/A   Clear
6:35 PM 69.8 °F - 23.0 °F 17% 29.98 in 10.0 mi SSW 10.4 mph - N/A   Clear
6:55 PM 71.6 °F - 17.6 °F 13% 29.97 in 10.0 mi SSW 10.4 mph 17.3 mph N/A   Clear
7:15 PM 69.8 °F - 19.4 °F 15% 29.97 in 10.0 mi SSW 9.2 mph - N/A   Clear
7:35 PM 69.8 °F - 21.2 °F 16% 29.97 in 10.0 mi SW 6.9 mph - N/A   Clear
7:55 PM 68.0 °F - 19.4 °F 16% 29.97 in 10.0 mi SSW 4.6 mph - N/A   Clear
8:15 PM 68.0 °F - 19.4 °F 16% 29.97 in 10.0 mi SSW 8.1 mph - N/A   Clear
8:35 PM 64.4 °F - 19.4 °F 18% 29.97 in 10.0 mi South 4.6 mph - N/A   Clear
8:55 PM 62.6 °F - 21.2 °F 20% 29.98 in 10.0 mi SW 3.5 mph - N/A   Clear
9:15 PM 55.4 °F - 26.6 °F 33% 29.98 in 10.0 mi Calm Calm - N/A   Clear
9:35 PM 55.4 °F - 26.6 °F 33% 29.99 in 10.0 mi Calm Calm - N/A   Clear
9:55 PM 46.4 °F 43.5 °F 32.0 °F 57% 29.99 in 10.0 mi ESE 5.8 mph - N/A   Clear
10:15 PM 46.4 °F 42.4 °F 32.0 °F 57% 29.99 in 10.0 mi East 8.1 mph - N/A   Clear
10:35 PM 46.4 °F 45.2 °F 30.2 °F 53% 30.00 in 10.0 mi SSE 3.5 mph - N/A   Clear
10:55 PM 46.4 °F - 32.0 °F 57% 29.99 in 10.0 mi Calm Calm - N/A   Clear
11:15 PM 44.6 °F - 32.0 °F 61% 29.99 in 10.0 mi Calm Calm - N/A   Clear
11:35 PM 42.8 °F 41.1 °F 32.0 °F 66% 29.99 in 10.0 mi SSE 3.5 mph - N/A   Clear
11:55 PM 42.8 °F 41.1 °F 32.0 °F 66% 29.99 in 10.0 mi SE 3.5 mph - N/A   Clear